FENGYUN 1C DEB

Satellite information

Favourite Embed

Satellite Type and Status

DEBRISIN ORBIT

Key statistics

Satellite FENGYUN 1C DEB at a glance.

Uptime

9550

Days in orbit

Revolutions

≈ 14.3

Per day

Orbit

SSO

Sun Synchronous Orbit

Inclination

98.5

Latest

Satellite identification and parameters

Extended collection of information and parameters for FENGYUN 1C DEB.

Object identification

Identified? True

Debris? True

Object name: FENGYUN 1C DEB

International designator: 1999-025DUL

Object number (NORAD): 36211

Object ID (CCSDS): 36211

Country: PEOPLES REPUBLIC OF CHINA (PRC)

Current information (Y/N): Y

RCS size: SMALL

Orbital parameters

Period: 101.04 minutes

Inclination: 98.4935 deg

SMA: 7186.01 km

Apoapsis: 1001.793 km

Periapsis: 613.958 km

RAAN: 179.209 deg

Eccentricy: 0.0269854

Argument of periapsis: 354.0707 deg

Mean anomaly: 5.7298 deg

Mean motion: 14.25184246 rev/day

Mean motion (dot): 0.0000141 rev/day2

B* drag term: 0.0004248 1/REarth

Two-line elements (TLE)

Creation date: June 30, 2025, 5:29 p.m.

Reference frame: TEME

Reference center: EARTH

Epoch: June 30, 2025, 5:24 a.m. UTC

TLE line 0: 0 FENGYUN 1C DEB

TLE line 1: 1 36211U 99025DUL 25181.22561656 .00001410 00000-0 42480-3 0 9995

TLE line 2: 2 36211 98.4935 179.2090 0269854 354.0707 5.7298 14.25184246920112

Live tracking on map

Real-time ground track for satellite FENGYUN 1C DEB.

In-orbit conjunctions

A list of the most updated potential collisions computed for object FENGYUN 1C DEB.

Target Orbit TCA Probability of collision Miss distance Type
SJ-5 SSO 2024-08-22 20:20:02 0.0001244523 307.0 (m) PAYLOAD

Associated space launch

Chinese polar orbiting meteorological satellite

FENGYUN 1C DEB was lifted into orbit during the mission ‘Long March 4B | Feng Yun 1C’, on board a Long March 4B space rocket.

The launch took place on May 10, 1999, 1:33 a.m. from Launch Complex 7.

For more information about the launch, click the button.

Launch to space Long March 4B | Feng Yun 1C
Long March 4B | Feng Yun 1C

Agency: N/A

Status: Launch Successful

Launch date: May 10, 1999, 1:33 a.m. UTC

Rocket: Long March 4B

Launch pad: Launch Complex 7

Location: Taiyuan Satellite Launch Center, People's Republic of China

...

Latest news about this satellite

There are no fresh news available about this satellite. Check back as we update our databases every day.


Newsletter sign-up

Weekly statistics, charts and insights to help you stay on top of the space industry.